Flag for Australia Weather past 2 weeks in Darwin, Northern Territory, Australia

Now
77 °F

Partly cloudy.


Feels Like: 78 °F
Forecast: 81 / 86 °F
Wind: 3 mph from East

Location: Darwin Airport

Current Time: Jan 29, 2015 at 10:53:21 PM

Latest Report: Jan 29, 2015 at 10:30 PM


Visibility: N/A

Pressure: 29.77 "Hg

Humidity: 94%

Dew point: 75 °F

Location of DarwinLocation

Historic Weather in Darwin — Graph

°F

Darwin temperature yesterday

Maximum temperature yesterday: 90 °F (at 2:30 PM)
Minimum temperature yesterday: 73 °F (at 5:30 PM)
Average temperature yesterday: 81 °F

Past Weeks' High & Low Weather Summary

 TemperatureHumidityPressure
High91 °F (Jan 19, 2:30 PM)100% (Jan 14, 10:30 PM)29.92 "Hg (Jan 14, 10:30 PM)
Low73 °F (Jan 27, 1:00 PM)44% (Jan 19, 4:00 PM)29.59 "Hg (Jan 28, 3:30 PM)
Average82 °F82%29.75 "Hg
* Reported Jan 14 9:30 PM — Jan 29 9:30 PM, Darwin, Weather by CustomWeather, © 2014

Note: Actual official high and low records may vary slightly from our data, if they occured in-between our weather recording intervals... More about our weather records

Advertising

Darwin weather history for previous 24 hours

 ConditionsComfort  
Time TempWeatherWind HumidityBarometerVisibility
9:30 PM
Jan 29
77 °FPassing clouds.5 mph94%29.77 "HgN/A
9:00 PM77 °FLight rain. Passing clouds.2 mph94%29.77 "HgN/A
8:30 PM77 °FLight rain. Passing clouds.5 mph94%29.74 "HgN/A
8:00 PM77 °FPassing clouds.7 mph94%29.74 "HgN/A
7:30 PM77 °FSprinkles. Partly sunny.5 mph94%29.71 "HgN/A
7:00 PM77 °FThundershowers. More clouds than sun.6 mph89%29.71 "HgN/A
6:30 PM75 °FSprinkles. Partly sunny.12 mph94%29.68 "Hg5 mi
5:30 PM82 °FThunderstorms. Partly sunny.12 mph66%29.68 "HgN/A
4:30 PM90 °FBroken clouds.15 mph63%29.62 "HgN/A
4:00 PM90 °FScattered clouds.13 mph59%29.62 "HgN/A
3:30 PM90 °FScattered clouds.12 mph59%29.65 "HgN/A
3:00 PM90 °FPassing clouds.9 mph55%29.65 "HgN/A
2:30 PM90 °FPassing clouds.13 mph52%29.65 "HgN/A
2:00 PM90 °FPassing clouds.8 mph59%29.68 "HgN/A
1:30 PM88 °FPassing clouds.10 mph55%29.68 "HgN/A
12:30 PM88 °FScattered clouds.10 mph66%29.71 "HgN/A
12:00 PM86 °FScattered clouds.7 mph70%29.74 "HgN/A
11:30 AM86 °FScattered clouds.7 mph66%29.74 "HgN/A
11:00 AM86 °FScattered clouds.8 mph66%29.74 "HgN/A
10:30 AM86 °FBroken clouds.6 mph70%29.74 "HgN/A
10:00 AM84 °FPartly sunny.7 mph70%29.74 "HgN/A
9:30 AM84 °FScattered clouds.7 mph74%29.74 "HgN/A
9:00 AM82 °FScattered clouds.8 mph79%29.74 "HgN/A
8:30 AM81 °FPartly sunny.3 mph84%29.74 "HgN/A
8:00 AM79 °FBroken clouds.5 mph89%29.74 "HgN/A
7:30 AM77 °FPassing clouds.1 mph89%29.71 "HgN/A
7:00 AM77 °FClear.8 mph89%29.71 "Hg10 mi
6:30 AM77 °FPartly cloudy.5 mph89%29.68 "HgN/A
5:30 AM75 °FPassing clouds.5 mph94%29.68 "HgN/A
5:00 AM75 °FPartly cloudy.8 mph94%29.68 "HgN/A
4:30 AM75 °FPartly cloudy.7 mph94%29.71 "HgN/A
4:00 AM75 °FPassing clouds.10 mph94%29.71 "HgN/A
3:30 AM75 °FPartly cloudy.10 mph94%29.71 "HgN/A
3:00 AM77 °FPartly cloudy.6 mph94%29.71 "HgN/A
2:30 AM77 °FPassing clouds.8 mph89%29.71 "HgN/A
2:00 AM75 °FPartly cloudy.8 mph94%29.71 "HgN/A
1:30 AM75 °FPassing clouds.6 mph94%29.71 "HgN/A
1:00 AM75 °FPassing clouds.6 mph94%29.74 "HgN/A
12:30 AM75 °FLight rain. Partly cloudy.6 mph94%29.74 "HgN/A
12:00 AM75 °FLight rain. Partly cloudy.8 mph94%29.74 "HgN/A
11:30 PM
Jan 28
75 °FLight rain. Partly cloudy.6 mph94%29.74 "HgN/A
11:00 PM75 °FPartly cloudy.6 mph94%29.77 "HgN/A
10:30 PM75 °FPassing clouds.6 mph94%29.77 "HgN/A
10:16 PM75 °FPartly cloudy.7 mph89%29.77 "HgN/A
10:00 PM75 °FPassing clouds.7 mph89%29.77 "HgN/A
Weather by CustomWeather, © 2014

See weather overviewHow to use our weather pages